JA0QEV-13 Weather Reports


Display with metric or nautical units.
time (UTC)temp
F
wind
direction
speed
MPH
gust
MPH
rain 1hr
in
rain 24hr
in
rain mn
in
humidity
%
barometer
mb
20260509161856 48 84 0.0 1.0 0.00 0.04 0.00 85 1017.5
20260509161325 49 84 0.0 1.0 0.00 0.04 0.00 84 1017.6
20260509160834 49 83 0.0 1.0 0.00 0.04 0.00 84 1017.7
20260509160325 49 84 0.0 2.0 0.00 0.04 0.00 83 1017.6
20260509155831 49 59 0.0 2.0 0.00 0.04 0.00 83 1017.6
20260509155323 50 229 1.0 2.0 0.00 0.04 0.00 82 1017.7
20260509154833 50 231 0.0 2.0 0.00 0.04 0.00 81 1017.7
20260509154343 50 138 0.0 1.0 0.00 0.04 0.00 80 1017.7
20260509153852 50 138 0.0 3.0 0.00 0.04 0.00 80 1017.6
20260509153322 51 191 0.0 5.0 0.00 0.04 0.00 80 1017.6
20260509152832 51 221 1.0 6.0 0.00 0.04 0.00 79 1017.5
20260509152323 51 229 3.0 8.0 0.00 0.04 0.00 79 1017.4
20260509151834 51 227 3.0 6.0 0.00 0.04 0.00 80 1017.4
20260509151325 51 203 2.0 5.0 0.00 0.04 0.00 80 1017.4
20260509150836 51 198 2.0 5.0 0.00 0.04 0.00 80 1017.4
20260509150326 51 208 2.0 5.0 0.00 0.04 0.00 80 1017.4
20260509145830 51 203 1.0 4.0 0.00 0.04 0.04 80 1017.5
20260509145341 51 189 1.0 4.0 0.00 0.04 0.04 80 1017.6
20260509144850 51 176 0.0 4.0 0.00 0.04 0.04 80 1017.6
20260509144319 51 187 2.0 4.0 0.00 0.04 0.04 80 1017.6
20260509143850 51 198 1.0 4.0 0.00 0.04 0.04 80 1017.6
20260509143338 51 174 1.0 3.0 0.00 0.04 0.04 81 1017.6
20260509142828 51 183 0.0 2.0 0.00 0.04 0.04 81 1017.6
20260509142319 51 195 1.0 2.0 0.00 0.04 0.04 81 1017.6
20260509141850 51 191 0.0 3.0 0.00 0.04 0.04 81 1017.5
20260509141318 51 226 1.0 3.0 0.00 0.04 0.04 80 1017.5
20260509140827 52 255 0.0 2.0 0.00 0.04 0.04 80 1017.4
20260509140338 52 198 0.0 3.0 0.00 0.04 0.04 80 1017.5
20260509135825 52 198 1.0 3.0 0.00 0.04 0.04 80 1017.5
20260509135334 52 176 1.0 4.0 0.00 0.04 0.04 80 1017.5
20260509134844 52 205 2.0 4.0 0.00 0.04 0.04 80 1017.4
20260509134334 52 174 1.0 4.0 0.00 0.04 0.04 80 1017.4
20260509133825 52 200 1.0 3.0 0.00 0.04 0.04 81 1017.3
20260509133335 52 156 0.0 1.0 0.00 0.04 0.04 80 1017.4
20260509132826 52 153 0.0 3.0 0.00 0.04 0.04 80 1017.4
20260509132356 52 200 2.0 3.0 0.00 0.04 0.04 80 1017.3
20260509131826 52 158 0.0 1.0 0.00 0.04 0.04 80 1017.4
20260509131336 52 157 0.0 2.0 0.00 0.04 0.04 80 1017.2
20260509130826 52 208 1.0 3.0 0.00 0.04 0.04 80 1017.2
20260509130317 52 205 0.0 3.0 0.00 0.04 0.04 80 1017.2
20260509125823 52 224 1.0 2.0 0.00 0.04 0.04 79 1017.3
20260509125354 52 125 0.0 0.0 0.00 0.04 0.04 79 1017.2
20260509124825 53 154 0.0 1.0 0.00 0.04 0.04 78 1017.2
20260509124334 53 172 0.0 1.0 0.00 0.04 0.04 77 1017.1
20260509123844 54 103 0.0 3.0 0.00 0.04 0.04 77 1017.1
20260509123354 54 169 0.0 3.0 0.00 0.04 0.04 77 1017.0
20260509122857 53 144 0.0 3.0 0.00 0.04 0.04 78 1017.0
20260509122323 54 184 0.0 3.0 0.00 0.04 0.04 77 1016.9
20260509121817 54 198 0.0 2.0 0.00 0.04 0.04 77 1017.0
20260509121327 54 200 1.0 2.0 0.00 0.04 0.04 76 1016.7
20260509120817 55 165 0.0 1.0 0.00 0.04 0.04 74 1016.9
20260509120328 55 165 0.0 1.0 0.00 0.04 0.04 74 1016.7
20260509115834 56 165 0.0 1.0 0.00 0.04 0.04 73 1016.7
20260509115324 56 181 0.0 5.0 0.00 0.04 0.04 73 1016.6
20260509114833 56 221 3.0 5.0 0.00 0.04 0.04 74 1016.7
20260509114325 56 271 2.0 3.0 0.00 0.04 0.04 74 1016.6
20260509113834 57 4 1.0 2.0 0.00 0.04 0.04 73 1016.4
20260509113323 58 155 0.0 1.0 0.00 0.04 0.04 68 1016.3
20260509112835 58 120 0.0 1.0 0.00 0.04 0.04 67 1016.4
20260509112325 58 130 0.0 2.0 0.00 0.04 0.04 66 1016.2
20260509111833 59 129 0.0 2.0 0.00 0.04 0.04 65 1016.2
20260509111322 59 119 0.0 4.0 0.00 0.04 0.04 65 1016.2
20260509110833 59 103 1.0 4.0 0.00 0.04 0.04 65 1016.1
20260509110344 59 101 1.0 7.0 0.00 0.04 0.04 65 1016.2
20260509105830 60 99 2.0 9.0 0.00 0.04 0.04 65 1016.1
20260509105320 60 110 4.0 10.0 0.00 0.04 0.04 64 1015.9
20260509104831 60 82 6.0 10.0 0.00 0.04 0.04 64 1015.9
20260509104321 60 103 4.0 9.0 0.00 0.04 0.04 64 1015.9
20260509103852 60 117 4.0 9.0 0.00 0.04 0.04 63 1015.9
20260509103326 60 110 5.0 8.0 0.00 0.04 0.04 63 1015.7
20260509102831 60 119 3.0 8.0 0.00 0.04 0.04 64 1015.6
20260509102342 60 117 3.0 10.0 0.00 0.04 0.04 63 1015.6
20260509101850 60 101 6.0 10.0 0.00 0.04 0.04 61 1015.5
20260509101320 60 98 2.0 8.0 0.00 0.04 0.04 60 1015.5
20260509100829 60 89 3.0 9.0 0.00 0.04 0.04 60 1015.5
20260509100318 60 135 5.0 9.0 0.00 0.04 0.04 59 1015.3
20260509095824 61 98 5.0 12.0 0.00 0.07 0.04 60 1015.4
20260509095335 61 108 5.0 15.0 0.00 0.07 0.04 61 1015.3
20260509094826 61 91 5.0 12.0 0.00 0.07 0.04 61 1015.1
20260509094317 61 95 5.0 12.0 0.00 0.07 0.04 62 1015.1
20260509093827 61 92 6.0 13.0 0.00 0.07 0.04 61 1015.1
20260509093322 61 92 8.0 14.0 0.00 0.07 0.04 60 1015.1
20260509092826 62 95 8.0 16.0 0.00 0.07 0.04 60 1015.0
20260509092317 62 103 6.0 16.0 0.00 0.07 0.04 61 1015.0
20260509091827 62 84 8.0 13.0 0.00 0.07 0.04 61 1014.9
20260509091318 62 94 7.0 14.0 0.00 0.07 0.04 62 1014.9
20260509090829 62 129 9.0 14.0 0.00 0.07 0.04 61 1014.9
20260509090338 62 115 7.0 17.0 0.00 0.07 0.04 60 1014.7
20260509085844 63 103 10.0 18.0 0.00 0.14 0.04 60 1014.8
20260509085334 63 79 10.0 18.0 0.00 0.14 0.04 59 1014.6
20260509084825 63 94 10.0 19.0 0.00 0.14 0.04 59 1014.5
20260509084336 63 112 8.0 17.0 0.00 0.14 0.04 60 1014.3
20260509083825 63 107 10.0 16.0 0.00 0.14 0.04 59 1014.4
20260509083320 63 79 10.0 23.0 0.00 0.14 0.04 58 1014.3
20260509082826 63 102 10.0 23.0 0.00 0.14 0.04 58 1014.2
20260509082335 63 85 13.0 23.0 0.00 0.14 0.04 57 1014.1
20260509081825 63 102 14.0 23.0 0.00 0.14 0.04 57 1014.0
20260509081334 63 115 10.0 18.0 0.00 0.14 0.04 57 1013.9
20260509080824 64 93 12.0 18.0 0.00 0.14 0.04 56 1013.9
20260509080335 64 68 10.0 18.0 0.00 0.14 0.04 56 1013.8
20260509075819 64 71 11.0 19.0 0.00 0.23 0.04 54 1013.8
20260509075330 64 101 13.0 19.0 0.00 0.23 0.04 54 1013.6
20260509074819 65 91 9.0 18.0 0.00 0.23 0.04 54 1013.6
20260509074328 65 172 9.0 18.0 0.00 0.23 0.04 53 1013.5
20260509073819 65 125 10.0 18.0 0.00 0.23 0.04 52 1013.4
20260509073330 65 98 11.0 18.0 0.00 0.23 0.04 51 1013.4
20260509072819 66 122 7.0 15.0 0.00 0.23 0.04 50 1013.4
20260509072330 66 85 7.0 21.0 0.00 0.23 0.04 52 1013.2
20260509071820 66 113 8.0 20.0 0.00 0.23 0.04 52 1013.1
20260509071329 66 96 9.0 19.0 0.00 0.23 0.04 51 1013.1
20260509070819 66 112 10.0 20.0 0.00 0.23 0.04 49 1013.1
20260509070350 66 84 12.0 20.0 0.00 0.23 0.04 49 1013.2
20260509065834 66 71 13.0 21.0 0.00 0.23 0.04 48 1013.1
20260509065325 66 88 14.0 21.0 0.00 0.23 0.04 47 1013.0
20260509064834 66 98 8.0 18.0 0.00 0.23 0.04 50 1013.0
20260509064324 66 118 11.0 19.0 0.00 0.23 0.04 47 1013.0
20260509063835 66 89 10.0 19.0 0.00 0.23 0.04 43 1013.0
20260509063326 66 109 8.0 19.0 0.00 0.23 0.04 46 1012.9
20260509062831 66 88 10.0 23.0 0.00 0.23 0.04 45 1013.0
20260509062326 66 86 10.0 24.0 0.00 0.23 0.04 44 1013.1
20260509061836 66 63 9.0 19.0 0.00 0.23 0.04 45 1013.0
20260509061327 66 90 10.0 19.0 0.00 0.23 0.04 45 1012.9
20260509060818 66 97 9.0 18.0 0.00 0.23 0.04 45 1012.9
20260509060349 66 98 11.0 18.0 0.00 0.23 0.04 45 1013.0
20260509055835 67 58 10.0 22.0 0.00 0.23 0.04 44 1012.8
20260509055325 67 96 17.0 22.0 0.00 0.23 0.04 41 1012.8
20260509054835 67 125 11.0 17.0 0.00 0.23 0.04 42 1013.0
20260509054326 67 94 10.0 21.0 0.00 0.23 0.04 45 1012.9
20260509053821 66 89 10.0 24.0 0.00 0.23 0.04 43 1013.1
20260509053332 66 90 10.0 24.0 0.00 0.23 0.04 42 1013.0
20260509052858 66 124 10.0 22.0 0.00 0.23 0.04 44 1013.0
20260509052326 67 89 13.0 21.0 0.00 0.23 0.04 42 1013.1
20260509051855 67 126 11.0 21.0 0.00 0.23 0.04 42 1012.9
20260509051345 67 114 11.0 20.0 0.00 0.23 0.04 42 1013.0
20260509050832 67 109 9.0 21.0 0.00 0.23 0.04 45 1013.1
20260509050322 67 78 9.0 21.0 0.00 0.23 0.04 44 1013.1
20260509045827 67 107 9.0 19.0 0.00 0.23 0.04 48 1013.1
20260509045318 66 103 10.0 21.0 0.00 0.23 0.04 45 1013.1
20260509044827 66 110 11.0 23.0 0.00 0.23 0.04 45 1013.2
20260509044337 66 105 11.0 23.0 0.00 0.23 0.04 44 1013.2
20260509043828 66 114 9.0 18.0 0.00 0.23 0.04 48 1013.3
20260509043336 66 115 9.0 20.0 0.00 0.23 0.04 48 1013.3
20260509042824 66 89 14.0 20.0 0.00 0.23 0.04 45 1013.4
20260509042319 66 103 11.0 22.0 0.00 0.23 0.04 47 1013.3
20260509041830 66 101 13.0 22.0 0.00 0.23 0.04 46 1013.4
20260509041319 66 71 14.0 22.0 0.00 0.23 0.04 45 1013.4
20260509040828 66 70 8.0 17.0 0.00 0.23 0.04 47 1013.4
20260509040336 65 93 10.0 22.0 0.00 0.23 0.04 46 1013.4
20260509035844 65 86 14.0 21.0 0.00 0.23 0.04 49 1013.4
20260509035355 65 153 8.0 18.0 0.00 0.23 0.04 50 1013.4
20260509034823 65 77 7.0 18.0 0.00 0.23 0.04 48 1013.4
20260509034331 65 91 10.0 18.0 0.00 0.23 0.04 51 1013.5
20260509033821 65 106 10.0 18.0 0.00 0.23 0.04 49 1013.5
20260509033331 65 108 8.0 18.0 0.00 0.23 0.04 52 1013.5
20260509032835 65 84 10.0 18.0 0.00 0.23 0.04 54 1013.5
20260509032326 64 90 10.0 19.0 0.00 0.23 0.04 51 1013.6
20260509031836 64 95 11.0 19.0 0.00 0.23 0.04 55 1013.7
20260509031331 64 120 11.0 26.0 0.00 0.23 0.04 54 1013.7
20260509030841 63 82 14.0 26.0 0.00 0.23 0.04 53 1013.8
20260509030330 64 91 13.0 22.0 0.00 0.23 0.04 55 1013.7
20260509025835 63 92 14.0 22.0 0.00 0.23 0.04 53 1013.7
20260509025326 63 108 12.0 21.0 0.00 0.23 0.04 55 1013.6
20260509024817 63 184 14.0 22.0 0.00 0.23 0.04 54 1013.6
20260509024328 63 115 13.0 22.0 0.00 0.23 0.04 54 1013.5
20260509023819 63 140 10.0 25.0 0.00 0.23 0.04 56 1013.7
20260509023328 63 60 13.0 54.0 0.00 0.23 0.04 56 1013.7
20260509022835 63 112 6.0 54.0 0.00 0.23 0.04 57 1013.6
20260509022330 63 91 15.0 24.0 0.00 0.23 0.04 55 1013.7
20260509021840 62 83 12.0 19.0 0.00 0.23 0.04 57 1013.7
20260509021329 62 85 12.0 20.0 0.00 0.23 0.04 54 1013.7
20260509020818 62 80 10.0 20.0 0.00 0.23 0.04 57 1014.0
20260509020327 62 79 13.0 24.0 0.00 0.23 0.04 55 1013.9
20260509015854 62 81 11.0 24.0 0.00 0.23 0.04 58 1013.8
20260509015321 62 139 13.0 24.0 0.00 0.23 0.04 58 1013.8
20260509014851 61 114 13.0 22.0 0.00 0.23 0.04 58 1013.8
20260509014341 61 85 16.0 22.0 0.00 0.23 0.04 58 1013.9
20260509013831 61 110 13.0 20.0 0.00 0.23 0.04 59 1013.8
20260509013322 61 93 10.0 22.0 0.00 0.23 0.04 62 1013.9
20260509012829 61 97 13.0 20.0 0.00 0.23 0.04 61 1013.9
20260509012320 61 108 6.0 19.0 0.00 0.23 0.04 63 1014.0
20260509011831 60 105 12.0 25.0 0.00 0.23 0.04 64 1014.1
20260509011326 60 117 13.0 22.0 0.00 0.23 0.04 65 1014.2
20260509010817 60 120 11.0 18.0 0.00 0.23 0.04 65 1014.0
20260509010325 60 126 10.0 24.0 0.00 0.23 0.04 64 1014.1
20260509005850 60 107 8.0 21.0 0.00 0.23 0.04 64 1014.0
20260509005320 60 86 14.0 21.0 0.00 0.23 0.04 64 1014.0
20260509004830 60 90 10.0 22.0 0.00 0.23 0.04 66 1013.9
20260509004319 59 97 12.0 22.0 0.00 0.23 0.04 64 1013.8
20260509003829 59 117 12.0 22.0 0.00 0.23 0.04 65 1013.7
20260509003318 59 82 10.0 18.0 0.00 0.23 0.04 66 1013.7
20260509002825 59 63 7.0 15.0 0.00 0.23 0.04 67 1013.6
20260509002356 59 105 6.0 18.0 0.00 0.23 0.04 68 1013.6
20260509001826 58 105 8.0 18.0 0.00 0.23 0.04 68 1013.7
20260509001317 58 86 10.0 16.0 0.00 0.23 0.04 67 1013.6
20260509000832 58 94 5.0 16.0 0.00 0.23 0.04 72 1013.7
20260509000323 57 106 5.0 17.0 0.00 0.23 0.04 72 1013.7
20260508235830 57 89 10.0 17.0 0.00 0.23 0.04 72 1013.7
20260508235340 57 96 5.0 15.0 0.00 0.23 0.04 75 1013.7
20260508234828 56 89 6.0 13.0 0.00 0.23 0.04 76 1013.8
20260508234319 56 84 7.0 13.0 0.00 0.23 0.04 77 1013.7
20260508233828 56 101 6.0 13.0 0.00 0.23 0.04 78 1013.7
20260508233317 56 96 9.0 14.0 0.00 0.23 0.04 77 1013.7
20260508232825 56 118 8.0 14.0 0.00 0.23 0.04 77 1013.8
20260508232335 56 162 1.0 12.0 0.00 0.23 0.04 77 1013.7
20260508231824 55 105 2.0 14.0 0.00 0.23 0.04 77 1013.7
20260508231318 55 100 4.0 18.0 0.00 0.23 0.04 77 1013.7
20260508230829 55 107 9.0 14.0 0.00 0.23 0.04 78 1013.8
20260508230318 55 183 4.0 9.0 0.00 0.23 0.04 79 1013.8
20260508225825 55 192 2.0 13.0 0.00 0.23 0.04 79 1013.6
20260508225355 55 88 5.0 17.0 0.00 0.23 0.04 78 1013.6
20260508224825 55 120 6.0 18.0 0.00 0.23 0.04 78 1013.6
20260508224335 55 104 7.0 18.0 0.00 0.23 0.04 78 1013.8
20260508223826 55 127 5.0 15.0 0.01 0.23 0.04 79 1013.7
20260508223317 55 79 6.0 20.0 0.02 0.23 0.04 79 1013.6
20260508222843 54 160 3.0 20.0 0.04 0.23 0.04 80 1013.4
20260508222337 54 108 9.0 22.0 0.04 0.23 0.04 80 1013.4
20260508221827 54 124 6.0 17.0 0.04 0.23 0.04 81 1013.1
20260508221318 54 89 7.0 24.0 0.04 0.23 0.04 81 1012.9
20260508220829 54 95 14.0 24.0 0.04 0.23 0.04 81 1012.9
20260508220339 54 179 12.0 26.0 0.04 0.23 0.04 85 1012.8
20260508215825 53 82 8.0 26.0 0.04 0.23 0.04 86 1012.4
20260508215334 53 120 9.0 21.0 0.04 0.23 0.04 88 1012.2
20260508214824 53 104 11.0 29.0 0.04 0.23 0.04 89 1012.0
20260508214335 53 80 12.0 40.0 0.04 0.23 0.04 90 1011.6
20260508213826 53 101 21.0 40.0 0.03 0.22 0.03 89 1011.5
20260508213334 53 100 18.0 29.0 0.02 0.21 0.02 86 1011.0
20260508212844 54 82 19.0 36.0 0.00 0.19 0.00 82 1010.8
20260508212355 55 116 20.0 36.0 0.00 0.19 0.00 78 1010.5
20260508211824 56 86 14.0 24.0 0.00 0.19 0.00 75 1010.4
20260508211336 56 87 15.0 24.0 0.00 0.19 0.00 74 1010.0
20260508210826 56 84 12.0 23.0 0.00 0.19 0.00 73 1009.9
20260508210316 55 82 13.0 23.0 0.00 0.19 0.00 73 1009.6
20260508205822 55 82 13.0 22.0 0.00 0.19 0.00 73 1009.5
20260508205333 55 79 11.0 27.0 0.00 0.19 0.00 73 1009.4
20260508204824 55 97 15.0 27.0 0.00 0.19 0.00 73 1009.0
20260508204333 55 64 14.0 25.0 0.00 0.19 0.00 73 1009.1
20260508203821 55 79 11.0 25.0 0.00 0.19 0.00 73 1009.0
20260508203330 55 81 10.0 26.0 0.00 0.19 0.00 72 1008.9
20260508202822 55 84 11.0 26.0 0.00 0.19 0.00 71 1008.7
20260508202333 56 55 13.0 24.0 0.00 0.19 0.00 69 1008.5
20260508201824 56 84 13.0 26.0 0.00 0.19 0.00 68 1008.3
20260508201332 56 98 15.0 30.0 0.00 0.19 0.00 68 1008.2
20260508200824 56 77 16.0 30.0 0.00 0.19 0.00 68 1008.2
20260508195818 56 80 18.0 32.0 0.00 0.19 0.00 66 1007.8
20260508195329 56 90 16.0 25.0 0.00 0.19 0.00 64 1007.7
20260508194820 56 34 10.0 27.0 0.00 0.19 0.00 64 1007.4
20260508194331 56 91 13.0 27.0 0.00 0.19 0.00 63 1007.4
20260508193842 56 95 12.0 37.0 0.00 0.19 0.00 63 1007.1
20260508193336 56 109 10.0 19.0 0.00 0.19 0.00 64 1007.0
20260508192822 56 105 7.0 24.0 0.00 0.19 0.00 64 1006.9
20260508192333 56 101 12.0 30.0 0.00 0.19 0.00 64 1006.8
20260508191824 56 117 16.0 30.0 0.00 0.19 0.00 64 1006.6
20260508191335 56 98 11.0 23.0 0.00 0.19 0.00 65 1006.4
20260508190826 56 101 11.0 28.0 0.00 0.19 0.00 65 1006.2
20260508190337 56 81 16.0 28.0 0.00 0.19 0.00 64 1006.3
20260508185819 56 120 15.0 27.0 0.00 0.19 0.00 64 1006.3
20260508185330 56 108 9.0 22.0 0.00 0.19 0.00 65 1006.0
20260508184825 56 82 15.0 24.0 0.00 0.19 0.00 64 1006.0
20260508184354 56 94 14.0 24.0 0.00 0.19 0.00 64 1006.0
20260508183824 56 82 15.0 23.0 0.00 0.19 0.00 63 1006.0
20260508183334 56 116 11.0 18.0 0.00 0.19 0.00 65 1005.9
20260508182842 56 124 10.0 20.0 0.00 0.19 0.00 65 1005.8
20260508182327 56 97 11.0 22.0 0.00 0.19 0.00 65 1005.6
20260508181818 56 110 14.0 22.0 0.00 0.19 0.00 64 1005.7
20260508181349 56 106 13.0 22.0 0.00 0.19 0.00 66 1005.6
20260508180838 56 92 13.0 24.0 0.00 0.19 0.00 66 1005.3
20260508180328 55 84 16.0 28.0 0.00 0.19 0.00 66 1005.4
20260508175835 55 80 15.0 26.0 0.00 0.19 0.00 67 1005.2
20260508175324 55 96 14.0 26.0 0.00 0.19 0.00 68 1005.4
20260508174834 55 112 16.0 33.0 0.00 0.19 0.00 67 1005.2
20260508174344 56 84 16.0 38.0 0.00 0.19 0.00 65 1005.3
20260508173853 58 113 19.0 28.0 0.00 0.19 0.00 59 1005.3
20260508173326 57 92 14.0 23.0 0.00 0.19 0.00 55 1005.0
20260508172833 56 117 2.0 9.0 0.00 0.19 0.00 56 1005.0
20260508172344 56 67 3.0 7.0 0.00 0.19 0.00 55 1004.7
20260508171834 57 129 1.0 3.0 0.00 0.19 0.00 54 1004.8
20260508171325 57 105 1.0 8.0 0.00 0.19 0.00 53 1004.9
20260508170834 58 147 0.0 10.0 0.00 0.19 0.00 53 1004.8
20260508170326 57 165 1.0 7.0 0.00 0.19 0.00 53 1005.0
20260508165851 57 153 1.0 3.0 0.00 0.19 0.00 53 1004.9
20260508165339 57 143 1.0 4.0 0.00 0.19 0.00 52 1005.1
20260508164826 57 146 1.0 4.0 0.00 0.19 0.00 51 1005.1
20260508164336 57 136 1.0 3.0 0.00 0.19 0.00 51 1005.2
20260508163825 57 173 1.0 4.0 0.00 0.19 0.00 51 1005.1
20260508163335 57 157 2.0 5.0 0.00 0.19 0.00 50 1005.2
20260508162820 57 108 2.0 5.0 0.00 0.19 0.00 50 1005.1
20260508162329 57 205 0.0 3.0 0.00 0.19 0.00 50 1005.2